HULIANWANG DIGUI-62

导读

“HULIANWANG DIGUI-62”是中国于2025年8月13日发射的低轨卫星,归属“ DIGUI”系列低轨星座体系。该卫星将支撑低轨互联网星座部署,服务全球高速互联网络构建,增强星座通信覆盖能力,为各类用户提供泛在、便捷的空间通信服务,推动中国卫星互联网基础设施建设迈向新阶段。

基本信息
目录编号:
65168
目录名称:
HULIANWANG DIGUI-62
国际标识:
2025-174E
轨道中心:
EARTH
卫星名称:
HULIANWANG DIGUI-62
卫星全名:
HULIANWANG DIGUI-62
卫星状态:
在轨 (已飞行303 天)
发射日期:
2025-08-13 UTC
国别 :
中国 (CN)
星等 :
--
轨道信息
数据来源 国际轨道数据 AOE轨道数据
星历时间 2026-06-12T15:26:59+0800
12小时前
查看轨道信息
2026-06-11T03:00:00+0800
2天前
查看轨道信息
半长轴 7546.071km 7546.072km
偏心率 0.0001689 0.0001724
轨道倾角 86.491° 86.490°
近地点辐角 92.727° 92.335°
升交点赤经 253.510° 254.023°
平近点角 267.406° 230.772°
近地点 1166.659km 1166.634km
远地点 1169.209km 1169.236km
周期 108.728分钟 108.728分钟
每日圈数 13.244071 13.244068
详细信息
使用方式:
暂无
2D轨道图
3D轨道图
轨道高度分析图
轨道倾角分析图
轨道综合分析图
查看轨道综合分析图